SNAP-3 EDDIE

Last updated on Sat Aug 30 2025 00:03:48 GMT+0000 (Coordinated Universal Time)

1 40972U 15058J 25240.64148396 .00043913 00000+0 16345-2 0 9995 2 40972 64.7583 356.0558 0073585 171.6484 188.5889 15.24689301 73970
UTC large
Height (km)
Speed (km/s)
/
Latitude / Longitude
Inclination (degrees)
Orbital Period (minutes)
Azimuth
Elevation
Range (km)
Doppler Factor

Next 0 passes for location: London (51.5072 / 0.1276)

Sorry there are no passes over London.